| time (UTC) | temp F | wind direction | speed MPH | gust MPH | rain 1hr in | rain 24hr in | rain mn in | humidity % | barometer mb |
| 20260504233217 | 63 | 113 | 3.0 | 4.0 | 0.19 | 0.19 | 0.19 | 74 | 996.1 |
| 20260504232217 | 64 | 158 | 6.0 | 8.0 | 0.19 | 0.19 | 0.19 | 74 | 996.7 |
| 20260504231217 | 65 | 180 | 5.0 | 7.0 | 0.18 | 0.18 | 0.18 | 72 | 996.6 |
| 20260504230217 | 66 | 113 | 1.0 | 2.0 | 0.12 | 0.12 | 0.12 | 70 | 997.0 |
| 20260504225216 | 69 | 293 | 2.0 | 3.0 | 0.06 | 0.06 | 0.06 | 62 | 996.8 |
| 20260504224217 | 73 | 270 | 9.0 | 14.0 | 0.01 | 0.01 | 0.01 | 54 | 997.3 |
| 20260504223217 | 76 | 225 | 8.0 | 13.0 | 0.00 | 0.00 | 0.00 | 44 | 996.8 |
| 20260504222217 | 78 | 0 | 6.0 | 12.0 | 0.00 | 0.00 | 0.00 | 36 | 996.5 |
| 20260504221237 | 79 | 0 | 8.0 | 12.0 | 0.00 | 0.00 | 0.00 | 32 | 996.5 |
| 20260504220217 | 80 | 0 | 9.0 | 12.0 | 0.00 | 0.00 | 0.00 | 31 | 996.6 |
| 20260504215217 | 80 | 0 | 9.0 | 15.0 | 0.00 | 0.00 | 0.00 | 33 | 996.5 |
| 20260504214237 | 79 | 0 | 12.0 | 20.0 | 0.00 | 0.00 | 0.00 | 35 | 996.8 |
| 20260504213217 | 78 | 0 | 12.0 | 15.0 | 0.00 | 0.00 | 0.00 | 34 | 996.9 |
| 20260504212258 | 79 | 203 | 7.0 | 9.0 | 0.00 | 0.00 | 0.00 | 36 | 996.9 |
| 20260504211217 | 79 | 0 | 11.0 | 18.0 | 0.00 | 0.00 | 0.00 | 35 | 997.2 |
| 20260504210237 | 79 | 0 | 10.0 | 14.0 | 0.00 | 0.00 | 0.00 | 34 | 997.4 |
| 20260504205216 | 80 | 248 | 12.0 | 23.0 | 0.00 | 0.00 | 0.00 | 30 | 997.4 |
| 20260504204216 | 80 | 248 | 8.0 | 11.0 | 0.00 | 0.00 | 0.00 | 29 | 997.6 |
| 20260504203217 | 81 | 270 | 5.0 | 9.0 | 0.00 | 0.00 | 0.00 | 30 | 997.5 |
| 20260504202217 | 81 | 0 | 9.0 | 15.0 | 0.00 | 0.00 | 0.00 | 29 | 997.6 |
| 20260504201216 | 81 | 0 | 11.0 | 14.0 | 0.00 | 0.00 | 0.00 | 30 | 997.7 |
| 20260504200216 | 81 | 270 | 12.0 | 17.0 | 0.00 | 0.00 | 0.00 | 28 | 997.9 |
| 20260504195216 | 79 | 270 | 7.0 | 11.0 | 0.00 | 0.00 | 0.00 | 30 | 998.1 |
| 20260504194237 | 79 | 225 | 8.0 | 12.0 | 0.00 | 0.00 | 0.00 | 29 | 998.3 |
| 20260504193237 | 79 | 248 | 10.0 | 14.0 | 0.00 | 0.00 | 0.00 | 28 | 998.4 |
| 20260504192218 | 79 | 248 | 17.0 | 24.0 | 0.00 | 0.00 | 0.00 | 28 | 998.5 |
| 20260504191216 | 79 | 0 | 15.0 | 20.0 | 0.00 | 0.00 | 0.00 | 30 | 998.7 |
| 20260504190216 | 80 | 203 | 12.0 | 17.0 | 0.00 | 0.00 | 0.00 | 32 | 998.8 |
| 20260504185216 | 79 | 248 | 10.0 | 15.0 | 0.00 | 0.00 | 0.00 | 30 | 998.8 |
| 20260504184216 | 79 | 0 | 11.0 | 17.0 | 0.00 | 0.00 | 0.00 | 31 | 999.0 |
| 20260504183216 | 78 | 248 | 10.0 | 15.0 | 0.00 | 0.00 | 0.00 | 32 | 998.9 |
| 20260504182216 | 78 | 248 | 11.0 | 15.0 | 0.00 | 0.00 | 0.00 | 31 | 998.9 |
| 20260504181216 | 78 | 225 | 12.0 | 20.0 | 0.00 | 0.00 | 0.00 | 31 | 999.1 |
| 20260504180216 | 78 | 225 | 10.0 | 15.0 | 0.00 | 0.00 | 0.00 | 31 | 999.3 |
| 20260504175216 | 77 | 203 | 16.0 | 24.0 | 0.00 | 0.00 | 0.00 | 32 | 999.5 |
| 20260504174216 | 76 | 270 | 11.0 | 21.0 | 0.00 | 0.00 | 0.00 | 33 | 999.5 |
| 20260504173257 | 76 | 225 | 10.0 | 13.0 | 0.00 | 0.00 | 0.00 | 36 | 999.8 |
| 20260504172216 | 75 | 180 | 8.0 | 11.0 | 0.00 | 0.00 | 0.00 | 39 | 999.9 |
| 20260504171216 | 75 | 270 | 9.0 | 16.0 | 0.00 | 0.00 | 0.00 | 39 | 999.9 |
| 20260504170216 | 75 | 248 | 10.0 | 14.0 | 0.00 | 0.00 | 0.00 | 37 | 1000.3 |
| 20260504160216 | 72 | 0 | 8.0 | 11.0 | 0.00 | 0.00 | 0.00 | 41 | 1001.1 |
| 20260504150236 | 68 | 0 | 10.0 | 14.0 | 0.00 | 0.00 | 0.00 | 45 | 1001.7 |
| 20260504141216 | 64 | 0 | 9.0 | 16.0 | 0.00 | 0.00 | 0.00 | 54 | 1002.4 |
| 20260504140216 | 62 | 0 | 6.0 | 8.0 | 0.00 | 0.00 | 0.00 | 57 | 1002.4 |
| 20260504130216 | 56 | 0 | 5.0 | 6.0 | 0.00 | 0.00 | 0.00 | 70 | 1003.0 |
| 20260504120216 | 50 | 0 | 4.0 | 5.0 | 0.00 | 0.00 | 0.00 | 80 | 1002.9 |
| 20260504110238 | 47 | 225 | 2.0 | 2.0 | 0.00 | 0.00 | 0.00 | 81 | 1002.8 |
| 20260504100218 | 47 | 180 | 3.0 | 6.0 | 0.00 | 0.00 | 0.00 | 80 | 1003.0 |
| 20260504081218 | 49 | 225 | 1.0 | 2.0 | 0.00 | 0.00 | 0.00 | 75 | 1002.8 |
| 20260504080218 | 49 | 225 | 2.0 | 3.0 | 0.00 | 0.00 | 0.00 | 74 | 1002.8 |
| 20260504070217 | 52 | 225 | 2.0 | 3.0 | 0.00 | 0.00 | 0.00 | 70 | 1003.7 |
| 20260504060217 | 55 | 248 | 3.0 | 4.0 | 0.00 | 0.00 | 0.00 | 67 | 1004.3 |
| 20260504050217 | 56 | 0 | 4.0 | 6.0 | 0.00 | 0.00 | 0.00 | 65 | 1004.5 |
| 20260504045236 | 56 | 248 | 4.0 | 5.0 | 0.00 | 0.00 | 0.00 | 64 | 1004.5 |
| 20260504044215 | 57 | 0 | 4.0 | 6.0 | 0.00 | 0.00 | 0.00 | 63 | 1004.5 |
| 20260504043215 | 57 | 180 | 6.0 | 13.0 | 0.00 | 0.00 | 0.00 | 63 | 1004.4 |
| 20260504042236 | 57 | 180 | 5.0 | 9.0 | 0.00 | 0.00 | 0.00 | 62 | 1004.5 |
| 20260504041236 | 58 | 0 | 3.0 | 5.0 | 0.00 | 0.00 | 0.00 | 61 | 1004.4 |
| 20260504040218 | 58 | 203 | 4.0 | 6.0 | 0.00 | 0.00 | 0.00 | 60 | 1004.4 |
| 20260504035237 | 58 | 225 | 3.0 | 6.0 | 0.00 | 0.00 | 0.00 | 60 | 1004.4 |
| 20260504034218 | 59 | 203 | 3.0 | 5.0 | 0.00 | 0.00 | 0.00 | 59 | 1004.6 |
| 20260504033217 | 59 | 203 | 4.0 | 7.0 | 0.00 | 0.00 | 0.00 | 59 | 1004.8 |
| 20260504032218 | 59 | 203 | 4.0 | 6.0 | 0.00 | 0.00 | 0.00 | 59 | 1004.8 |
| 20260504031218 | 59 | 180 | 3.0 | 5.0 | 0.00 | 0.00 | 0.00 | 59 | 1004.9 |
| 20260504030218 | 59 | 0 | 3.0 | 5.0 | 0.00 | 0.00 | 0.00 | 59 | 1004.9 |
| 20260504025217 | 59 | 0 | 3.0 | 4.0 | 0.00 | 0.00 | 0.00 | 59 | 1005.0 |
| 20260504024217 | 59 | 0 | 3.0 | 4.0 | 0.00 | 0.00 | 0.00 | 59 | 1005.0 |
| 20260504023217 | 60 | 203 | 3.0 | 4.0 | 0.00 | 0.00 | 0.00 | 59 | 1005.0 |
| 20260504022217 | 60 | 180 | 3.0 | 6.0 | 0.00 | 0.00 | 0.00 | 58 | 1005.0 |
| 20260504021218 | 61 | 0 | 4.0 | 5.0 | 0.00 | 0.00 | 0.00 | 57 | 1004.9 |
| 20260504020217 | 61 | 203 | 2.0 | 3.0 | 0.00 | 0.00 | 0.00 | 55 | 1004.8 |
| 20260504015217 | 62 | 0 | 4.0 | 6.0 | 0.00 | 0.00 | 0.00 | 54 | 1004.6 |
| 20260504014217 | 62 | 225 | 2.0 | 4.0 | 0.00 | 0.00 | 0.00 | 53 | 1004.6 |
| 20260504013218 | 62 | 203 | 4.0 | 7.0 | 0.00 | 0.00 | 0.00 | 52 | 1004.4 |
| 20260504012217 | 63 | 225 | 4.0 | 8.0 | 0.00 | 0.00 | 0.00 | 51 | 1004.5 |
| 20260504011238 | 64 | 203 | 5.0 | 9.0 | 0.00 | 0.00 | 0.00 | 50 | 1004.4 |
| 20260504010217 | 64 | 203 | 3.0 | 4.0 | 0.00 | 0.00 | 0.00 | 49 | 1004.3 |
| 20260504005218 | 65 | 203 | 4.0 | 5.0 | 0.00 | 0.00 | 0.00 | 48 | 1004.3 |
| 20260504004238 | 66 | 0 | 5.0 | 8.0 | 0.00 | 0.00 | 0.00 | 47 | 1004.4 |
| 20260504003217 | 67 | 225 | 6.0 | 9.0 | 0.00 | 0.00 | 0.00 | 46 | 1004.4 |
| 20260504002217 | 67 | 0 | 6.0 | 10.0 | 0.00 | 0.00 | 0.00 | 44 | 1004.4 |
| 20260504001217 | 68 | 248 | 8.0 | 11.0 | 0.00 | 0.00 | 0.00 | 43 | 1004.5 |
| 20260504000219 | 68 | 225 | 7.0 | 11.0 | 0.00 | 0.00 | 0.00 | 43 | 1004.4 |
| 20260503235237 | 69 | 248 | 10.0 | 15.0 | 0.00 | 0.00 | 0.00 | 42 | 1004.4 |
| 20260503234218 | 69 | 0 | 10.0 | 15.0 | 0.00 | 0.00 | 0.00 | 41 | 1004.4 |